Simultaneous Nadir Overpasses (SNOs) Predictions

Prediction of SNOs between GOES-17 and METOP-B Satellite Orbit:

Table of predicted SNOs for the next 14.0 days since TLE Epoch: 7/1/2023
Index Date Time (GOES-17) GOES-17 Lat,Lon METOP-B Lat,Lon Distance(km) Time Diff (sec)
1 07/01/2023 16:33:02 -0.00,-104.75 0.32,-106.20 165.20 80
2 07/02/2023 16:15:01 -0.00,-104.74 -0.77,-101.20 403.82 80
3 07/04/2023 04:34:01 0.00,-104.70 -0.25,-105.79 124.71 80
4 07/05/2023 04:10:40 0.00,-104.69 0.85,-100.79 443.99 80
5 07/06/2023 16:29:31 0.00,-104.73 0.12,-105.36 71.96 80
6 07/07/2023 16:11:31 0.00,-104.73 -0.98,-100.36 497.36 80
7 07/09/2023 04:30:29 -0.00,-104.69 -0.09,-104.95 30.28 80
8 07/11/2023 16:28:40 0.00,-104.72 -0.05,-104.52 23.26 80
9 07/14/2023 04:24:18 0.00,-104.69 0.10,-104.11 65.63 80
